Regional Weather Roundup
Issued by NWS

Home | Current Version | Previous Version | Text Only | Print | Product List | Glossary Off
Versions: 1 2 3 4 5 6 7 8 9 10 11 12 13 14 15 16 17 18 19 20 21 22 23 24 25 26 27 28 29 30 31 32 33 34 35 36 37 38 39 40 41 42 43 44 45 46 47 48 49 50

624
ASUS43 KDMX 231806
RWRIA

WEATHER ROUNDUP FOR IOWA
NATIONAL WEATHER SERVICE DES MOINES IA
100 PM CDT SAT SEP 23 2017

NOTE: "FAIR" INDICATES FEW OR NO CLOUDS BELOW 12,000 FEET WITH NO
SIGNIFICANT WEATHER AND/OR OBSTRUCTIONS TO VISIBILITY.

* - THESE STATIONS ARE NOT NWS STATIONS...THUS NOT UNDER NWS
QUALITY CONTROL.  THEY ALSO DO NOT REPORT WEATHER SUCH
AS PRECIPITATION OR FOG.

IAZ001>003-012>014-020>022-031>034-043>046-231900-
   NORTHWEST IOWA

CITY           SKY/WX    TMP DP  RH WIND       PRES   REMARKS
CARROLL *      PTSUNNY   88  66  48 S14G21    29.98S HX  90
CHEROKEE *     MOSUNNY   84  70  63 S9G16     29.95F HX  88
DENISON *      SUNNY     86  68  54 S8G16     29.98F HX  89
LE MARS *      MOSUNNY   84  70  61 S12       29.93F HX  88
ORANGE CITY *  MOSUNNY   82  72  69 SW9       29.95S HX  87
SHELDON *      PTSUNNY   82  70  65 MISG      29.93F HX  86
SIOUX CITY     MOSUNNY   84  71  65 S13       29.92F HX  89
6HR MIN TEMP:  62; 6HR MAX TEMP:  85;

SPENCER        MOSUNNY   86  69  56 S10G21    29.96F HX  90
6HR MIN TEMP:  69; 6HR MAX TEMP:  86;

STORM LAKE *   MOSUNNY   86  68  54 S13G18    29.97F HX  89
$$

IAZ055>058-069>071-079>083-090>094-231900-
   SOUTHWEST IOWA

CITY           SKY/WX    TMP DP  RH WIND       PRES   REMARKS
ATLANTIC *     MOSUNNY   88  66  48 S13G25    29.98F HX  90
AUDUBON *      MOSUNNY   86  70  58 S14G20    30.00F HX  90
CLARINDA *     SUNNY     90  66  45 S12G18    30.01F HX  92
COUNCIL BLFS * MOSUNNY   88  68  51 S18       29.96F HX  91
CRESTON *      MOSUNNY   88  64  45 S14G21    30.03F HX  89
HARLAN  *      SUNNY     88  66  48 S16G23    30.00F HX  90
LAMONI         MOSUNNY   88  66  48 S13       30.03F HX  90
6HR MIN TEMP:  68; 6HR MAX TEMP:  88;

RED OAK *      MOSUNNY   88  66  48 S13G23    29.98F HX  90
SHENANDOAH *   PTSUNNY   90  66  45 S14       29.98F HX  92
$$

IAZ047>049-059>061-072>074-084-231900-
   CENTRAL IOWA

CITY           SKY/WX    TMP DP  RH WIND       PRES   REMARKS
AMES           SUNNY     88  69  53 S18G24    30.01F HX  92
6HR MIN TEMP:  65; 6HR MAX TEMP:  88;

ANKENY *       SUNNY     88  66  48 S13G20    30.01F HX  90
BOONE *        MOSUNNY   90  66  45 S10G22    30.00F HX  92
CHARITON *     MOSUNNY   88  68  51 S9G18     30.03F HX  91
DES MOINES     MOSUNNY   90  66  45 S13       30.00F HX  92
6HR MIN TEMP:  71; 6HR MAX TEMP:  90;

GRINNELL*      MOSUNNY   89  64  43 SW10      30.05F HX  90
KNOXVILLE *    MOSUNNY   90  66  45 S12G18    30.02F HX  92
MARSHALLTOWN   MOSUNNY   89  67  47 S14       30.02F HX  92
6HR MIN TEMP:  67; 6HR MAX TEMP:  89;

NEWTON *       MOSUNNY   88  64  45 S10G17    30.03F HX  89
PELLA *        SUNNY     91  63  39 S7        30.04F HX  91
PERRY *          N/A     91  60  36 S14       29.99F HX  90
$$

IAZ004>006-015-016-023>025-035-036-231900-
   NORTH CENTRAL IOWA

CITY           SKY/WX    TMP DP  RH WIND       PRES   REMARKS
ALGONA *       MOSUNNY   86  70  58 S10G18    29.98F HX  90
CLARION *      MOSUNNY   88  68  51 S17       30.00F HX  91
ESTHERVILLE    SUNNY     84  70  62 S12       29.97F HX  88
6HR MIN TEMP:  67; 6HR MAX TEMP:  84;

FORT DODGE *   PTSUNNY   87  68  52 S16       29.99F HX  90
MASON CITY     MOSUNNY   87  67  51 S14G23    30.02F HX  90
6HR MIN TEMP:  65; 6HR MAX TEMP:  88;

FOREST CITY *  PTSUNNY   86  68  54 S13G18    30.00F HX  89
WEBSTER CITY * MOSUNNY   90  66  45 S13G21    29.98F HX  92
IOWA FALLS *   PTSUNNY   89  65  45 S15G21    30.04S HX  91
$$

IAZ007>011-017>019-026>030-037>042-050>054-066-231900-
   NORTHEAST IOWA

CITY           SKY/WX    TMP DP  RH WIND       PRES   REMARKS
CEDAR RAPIDS   SUNNY     91  65  41 S7        30.04F HX  93
6HR MIN TEMP:  65; 6HR MAX TEMP:  91;

CHARLES CITY * SUNNY     88  64  45 SW13G22   30.03S HX  89
CLINTON *      SUNNY    N/A N/A N/A S6        30.06F
DECORAH *      MOSUNNY   88  66  48 SW9G15    30.03F HX  90
DUBUQUE        SUNNY     86  68  54 S6        30.08F HX  89
6HR MIN TEMP:  65; 6HR MAX TEMP:  86;

MONTICELLO *   MOSUNNY   91  64  40 SW7       30.05F HX  93
OELWEIN *      MOSUNNY   88  64  45 SW10G17   30.05S HX  89
WATERLOO       MOSUNNY   90  63  40 S15G23    30.01F HX  91
6HR MIN TEMP:  65; 6HR MAX TEMP:  90;

$$

IAZ064-065-067-068-078-231900-
   EAST CENTRAL IOWA

CITY           SKY/WX    TMP DP  RH WIND       PRES   REMARKS
DAVENPORT      SUNNY     89  66  46 S8        30.08F HX  91
6HR MIN TEMP:  63; 6HR MAX TEMP:  90;

IOWA CITY      SUNNY     92  65  40 SW10      30.05F HX  94
6HR MIN TEMP:  66; 6HR MAX TEMP:  92;

MT. PLEASANT * MOSUNNY   91  61  36 S8        30.04F HX  91
MUSCATINE *    SUNNY     91  66  43 S6G13     30.05F HX  94
QUAD CITIES    MOSUNNY   92  64  39 MISG      30.05F HX  93
6HR MIN TEMP:  65; 6HR MAX TEMP:  92;

$$

IAZ062-063-075>077-085>089-095>099-231900-
   SOUTHEAST IOWA

CITY           SKY/WX    TMP DP  RH WIND       PRES   REMARKS
BURLINGTON     SUNNY     91  66  43 VRB5      30.05F HX  93
6HR MIN TEMP:  66; 6HR MAX TEMP:  92;

FAIRFIELD *    SUNNY     90  64  43 SE13      30.04F HX  91
FORT MADISON * SUNNY     93  64  38 S6        30.06F HX  95
KEOKUK *       MOSUNNY   91  64  40 VRB5      30.04F HX  93
OSKALOOSA *      N/A     90  65  43 S7        30.04F HX  92
OTTUMWA        SUNNY     89  68  49 SE9       30.04F HX  93
6HR MIN TEMP:  69; 6HR MAX TEMP:  89;

WASHINGTON *   SUNNY     91  66  43 S10G18    30.06F HX  94
$$

ABBREVIATIONS USED IN REMARKS
   TC - TEMPERATURES IN CELSIUS
  WCI - WIND CHILL INDEX
   HX - HEAT INDEX
  VSB - VISIBILITY
$$





USA.gov is the U.S. government's official web portal to all federal, state and local government web resources and services.